Location: Asheville, NC
(35.6000°N, 82.5500°W)
Time: 22:55:54

STARS - Pass Details

Date: 13 March 2018
Orbit: 625 x 641 km, 98.3° (Epoch: 20 March)

Event Time Altitude Azimuth Distance (km) Brightness Sun altitude
Rises 20:05:49 0° 7° (N) 2,928 ? -6.9°
Reaches altitude 10° 20:08:03 10° 2° (N) 2,014 ? -7.3°
Maximum altitude 20:12:19 53° 286° (WNW) 774 ? -8.2°
Drops below altitude 10° 20:16:32 10° 210° (SSW) 1,993 ? -9.0°
Sets 20:18:45 0° 205° (SSW) 2,894 ? -9.5°
